[[{"header":{"parameterUnit":"m.s-1","parameterCategory":1,"la1":30.2992,"la2":30.254,"lo1":-89.0895,"lo2":-89.0443,"dy":0.0025,"dx":0.0025,"nx":19,"ny":19,"refTime":"2026-03-27T03:00:00:Z","depth":0,"parameterNumber":2,"parameterNumberName":"U-component_of_WINDS"},"data":[0,0,0,-1.1122,-1.1123,-1.1146,-1.1146,-1.1182,-1.1182,0,0,0,0,0,0,0,0,0,0,0,-1.1118,-1.1118,-1.1122,-1.1123,-1.1146,-1.1146,-1.1182,-1.1182,0,0,0,0,0,0,0,0,0,0,0,-1.1118,-1.1118,-1.1118,-1.1123,-1.1146,-1.1146,-1.1182,-1.1162,0,0,0,0,0,0,0,0,0,0,-1.1139,-1.1136,-1.1118,-1.1118,-1.1123,-1.1146,-1.1146,-1.1161,-1.1163,-1.1173,0,-1.1182,0,-1.1182,-1.1185,-1.1185,0,0,0,-1.1121,-1.1134,-1.1139,-1.1118,-1.1123,-1.1146,-1.1135,-1.1162,-1.1165,-1.1176,-1.1182,-1.1183,-1.1183,-1.1185,-1.1185,-1.1246,-1.1247,0,0,-1.112,-1.1123,-1.1137,-1.114,-1.1136,-1.1134,-1.1136,-1.1164,-1.1171,-1.1182,-1.1184,-1.1184,-1.1185,-1.1185,-1.1246,-1.1247,0,0,0,-1.1117,-1.1122,-1.1126,-1.1139,-1.1143,-1.1135,-1.1137,-1.117,-1.117,-1.1184,-1.1184,-1.1185,-1.1186,-1.1246,-1.1246,-1.1267,0,0,0,-1.1116,-1.1121,-1.1125,-1.1128,-1.1142,-1.1156,-1.1142,-1.1168,-1.1171,-1.1184,-1.1185,-1.1186,-1.1245,-1.1246,-1.1266,-1.1277,0,0,0,-1.1115,-1.1121,-1.1125,-1.1128,-1.1138,-1.1156,-1.1158,-1.1169,-1.1171,-1.1185,-1.1186,-1.1245,-1.1246,-1.1265,-1.1275,-1.1295,0,0,0,-1.1115,-1.1143,-1.1125,-1.1156,-1.1138,-1.1169,-1.1158,-1.1181,-1.1195,-1.1186,-1.1245,-1.1246,-1.1264,-1.1273,-1.1293,-1.1312,-1.132,0,0,-1.1152,-1.1147,-1.1165,-1.115,-1.1185,-1.1165,-1.1203,-1.1213,-1.1211,-1.1235,-1.1237,-1.1266,-1.1275,-1.1294,-1.1363,-1.137,0,0,0,-1.1178,-1.1191,-1.12,-1.1213,-1.1222,-1.123,-1.1234,-1.1238,-1.1258,-1.1224,-1.1279,-1.1284,-1.1295,-1.1304,-1.1309,-1.1319,-1.125,-1.125,-1.125,-1.1234,-1.1231,-1.1262,-1.1262,-1.1275,-1.128,-1.1291,-1.1297,-1.129,-1.1303,-1.131,-1.1352,-1.1362,-1.1366,-1.1377,-1.1319,-1.1319,-1.132,-1.132,-1.1288,-1.1307,-1.1297,-1.1323,-1.132,-1.1342,-1.1349,-1.1343,-1.1364,-1.1346,-1.1356,-1.1337,-1.1374,-1.1383,-1.1321,-1.1321,-1.1321,-1.1321,-1.132,-1.1325,-1.1333,-1.1338,-1.1358,-1.1375,-1.1375,-1.1396,-1.1392,-1.1389,-1.1399,-1.1407,-1.1406,-1.1406,-1.1403,-1.1403,-1.1403,-1.1403,-1.1404,-1.1404,-1.1361,-1.1366,-1.1383,-1.1396,-1.1405,-1.1417,-1.1423,-1.1432,-1.1442,-1.1438,-1.1438,-1.143,-1.1377,-1.1365,-1.1406,-1.1405,-1.1405,-1.1405,-1.1405,-1.1417,-1.1404,-1.1431,-1.1441,-1.1456,-1.1474,-1.1469,-1.1489,-1.1496,-1.1507,-1.1498,-1.1459,-1.1454,-1.145,-1.1439,-1.1497,-1.1497,-1.1497,-1.1497,-1.1448,-1.1446,-1.1473,-1.1489,-1.1504,-1.1503,-1.1536,-1.1542,-1.1546,-1.155,-1.1542,-1.1527,-1.1523,-1.1521,-1.1515,-1.1505,-1.1578,-1.1578,-1.1579,-1.1483,-1.1482,-1.1509,-1.1513,-1.1525,-1.1536,-1.1567,-1.1586,-1.1588,-1.1582,-1.1554,-1.1551,-1.1528,-1.152,-1.1512,-1.1503,-1.1485,0,0]},{"header":{"parameterUnit":"m.s-1","parameterCategory":1,"la1":30.2992,"la2":30.254,"lo1":-89.0895,"lo2":-89.0443,"dy":0.0025,"dx":0.0025,"nx":19,"ny":19,"refTime":"2026-03-27T03:00:00:Z","depth":0,"parameterNumber":3,"parameterNumberName":"V-component_of_WINDS"},"data":[0,0,0,4.1089,4.1087,4.1001,4.1,4.0904,4.0904,0,0,0,0,0,0,0,0,0,0,0,4.1124,4.1123,4.1089,4.1087,4.1001,4.1,4.0905,4.0904,0,0,0,0,0,0,0,0,0,0,0,4.1124,4.1124,4.1123,4.1087,4.1001,4.1,4.0905,4.0964,0,0,0,0,0,0,0,0,0,0,4.1046,4.1087,4.1124,4.1123,4.1086,4.1001,4.1,4.0967,4.0961,4.095,0,4.0944,0,4.0923,4.0898,4.0898,0,0,0,4.1079,4.1093,4.1061,4.1123,4.1086,4.1001,4.1037,4.0963,4.0956,4.0942,4.0943,4.0939,4.0921,4.0898,4.0897,4.0869,4.0869,0,0,4.1084,4.1113,4.1066,4.1057,4.1073,4.104,4.1035,4.0959,4.0961,4.0942,4.0936,4.092,4.0897,4.0897,4.0869,4.0869,0,0,0,4.1103,4.1116,4.1086,4.1062,4.1045,4.1038,4.1032,4.0964,4.0952,4.0935,4.0919,4.0897,4.0896,4.0868,4.0869,4.091,0,0,0,4.1105,4.1127,4.1089,4.1106,4.1047,4.1004,4.1039,4.0957,4.0948,4.0919,4.0897,4.0895,4.0868,4.0869,4.0909,4.0924,0,0,0,4.1126,4.1129,4.1121,4.1107,4.1072,4.1004,4.0988,4.0955,4.0938,4.0898,4.0895,4.0868,4.0868,4.0907,4.0922,4.0927,0,0,0,4.1156,4.1155,4.1122,4.1116,4.1073,4.1031,4.0988,4.0955,4.0925,4.0896,4.0868,4.0869,4.0906,4.092,4.0926,4.0938,4.0945,0,0,4.1171,4.1158,4.1153,4.112,4.1093,4.1042,4.102,4.0964,4.0932,4.0892,4.0891,4.0909,4.0921,4.0927,4.0977,4.0984,0,0,0,4.1167,4.1164,4.115,4.1125,4.1085,4.1053,4.0998,4.0978,4.0943,4.0918,4.0911,4.0918,4.092,4.0924,4.093,4.093,4.0872,4.0872,4.0872,4.1229,4.1192,4.1182,4.1136,4.1113,4.1059,4.1037,4.1,4.0966,4.0966,4.0954,4.0989,4.0995,4.0999,4.1001,4.0957,4.0957,4.0957,4.0957,4.1249,4.1239,4.12,4.1176,4.1138,4.1116,4.1066,4.1044,4.1019,4.0994,4.0994,4.0971,4.1007,4.1007,4.096,4.0959,4.0959,4.0959,4.0958,4.1285,4.1274,4.1253,4.1217,4.1194,4.1147,4.1127,4.1091,4.1057,4.1058,4.1042,4.1042,4.1037,4.1053,4.1053,4.1053,4.1054,4.1054,4.1054,4.1331,4.1306,4.1294,4.1256,4.1238,4.121,4.116,4.1141,4.1111,4.1087,4.1086,4.1055,4.1018,4.101,4.1055,4.1055,4.1055,4.1055,4.1055,4.1365,4.1353,4.1335,4.1318,4.1272,4.1254,4.1211,4.1177,4.1156,4.1147,4.1117,4.1095,4.1078,4.1074,4.1067,4.1124,4.1124,4.1124,4.1124,4.1396,4.1386,4.1362,4.1337,4.1309,4.1271,4.1253,4.1216,4.1175,4.116,4.1147,4.1135,4.1132,4.1117,4.1111,4.1104,4.117,4.117,4.117,4.1416,4.1402,4.1393,4.1356,4.132,4.129,4.1273,4.1246,4.1197,4.1171,4.1149,4.1147,4.1127,4.1122,4.1093,4.1086,4.1072,0,0]}]]